Weather in Pokrov

Russia / Smolensk Oblast     55°21′34″N   35°02′58″E
temp.,
°C
wind,
m/s
gust,
m/s
humid.,
%
clouds,
%
prec.,
mm/h
press.,
hPa
HPBL,
m
14 may, fri
fri1400:00+7sse369690 0.0 1015124
03:00+6sse25965 0.0 101688
06:00+7se3895100 0.0 1016185
09:00+13se4881100 0.0 1015420
12:00+17se5858100 0.0 10141339
15:00+20se575084 0.0 10121689
18:00+15ese3687100 1.4 1010327
21:00+13e41197100 3.8 1009408
15 may, sat
sat1500:00+11ese399944 1.8 1009223
03:00+11se379993 1.8 1008138
06:00+12sse3897100 0.0 1008201
09:00+17s36816 0.0 1008463
12:00+20ssw46607 0.3 10081448
15:00+20s576691 1.1 10071288
18:00+17ssw59835 1.6 1007824
21:00+13s411945 2.7 1008416
16 may, sun
sun1600:00+11s4119816 0.0 1009412
03:00+10s4119816 0.0 1010310
06:00+10s4119775 0.0 1011395
09:00+14ssw5985100 0.0 1011596
12:00+19ssw576549 0.1 10121372
15:00+18sw477353 1.9 10121076
18:00+17sw36811 1.8 1012560
21:00+13sw22945 1.8 101415
17 may, mon
mon1700:00+12se1194100 0.0 101410
03:00+11se2295100 0.0 101423
06:00+12ese259526 0.0 1014107
09:00+17ese367699 0.0 1013368
12:00+22ese575918 0.0 10111151
15:00+25ese610575 0.0 10081621
18:00+23se61264100 0.0 10071122
21:00+19se61582100 0.1 1007737
18 may, tue
tue1800:00+17se5148646 0.1 1006524
03:00+15sse379890 0.6 1006184
06:00+15wsw3597100 0.3 1008353
09:00+16wnw1283100 0.5 1009476
12:00+18wsw1181100 1.1 1009611
15:00+15ene1293100 3.8 100979
18:00+16wnw259183 0.8 1008341
21:00+13w22955 1.8 101030